Location: Newark
(34.0131°N, 4.3314°W)
Time: 10:34:47
(UTC+00:00)

SR - Pass Details

Date: 17 October 2019
Orbit: 573 x 882 km, 66.7° (Epoch: 20 November)

Event Time Altitude Azimuth Distance (km) Brightness Sun altitude
Rises 22:19:17 0° 198° (SSW) 2,940 - -55.8°
Reaches altitude 10° 22:21:29 10° 196° (SSW) 2,076 - -56.2°
Maximum altitude 22:26:10 69° 114° (ESE) 757 - -56.9°
Drops below altitude 10° 22:31:21 10° 31° (NNE) 2,293 - -57.7°
Sets 22:33:52 0° 29° (NNE) 3,273 - -58.1°
